Погода Ханты-Мансийск

Погода Ханты-Мансийск : погода сейчас, прогноз погоды и архив. Всё, что Вы хотите узнать о погоде Ханты-Мансийск!

Хотите узнать прогноз погоды Ханты-Мансийск? Тогда Вам сюда: Погода Ханты-Мансийск

Поиск расширенной информации на нашем сайте:

Другие новости

Новости СМИ2

Главная страница сайта

Новости сайта

03.07.2017

Напоминаем, что на нашем специализированном сайте Метеоцентр.Азия вы можете получить высокодетализированные автоматические прогнозы погоды по пунктам России, СНГ и мира в авиационном формате (включающие направление и скорость ветра, видимость, явления погоды, количество и форму облачности, нижнюю и верхнюю границу облачности).


Погода Ханты-Мансийск - сегодня

Время (UTC), дата Ветер
(°,м/с) 
Видим.   Явления Облачность Т
(°С)
Тd
(°С)
f(%) Тe
(°С)
Pmin
(гПа)
dP
(гПа)
Po
(мм)
O2
(г/м3)
Тmin Tmax R s Состояние
почвы
03 21.09.17 010 (С) 10 км    10/0 средняя 
[Ac und]
+5.9 +4.4 90 +7  1019.8  1.7  761  299  +4.2    0.4     
06 21.09.17 020 (С) 10 км    9/9 600 м 
[Sc]
+9.3 +3.4 67 +9  1021  1.3  762  296           
09 21.09.17 010 (С) 10 км    10/10 600 м 
[Sc]
+8.6 +3.7 71 +9  1022  0.9  762  297           
12 21.09.17 320 (СЗ) 10 км    8/8 600 м средняя 
[Sc|Ac trans]
+8.1 +2.2 66 +9  1022.7  0.7  763  298           
15 21.09.17 310 (СЗ) 10 км  {дождь}  8/8 600 м 
[Sc]
+6.4 +3.1 79 +6  1022.7  763  300    +10.1  0.0     
18 21.09.17 320 (СЗ) 10 км  {дождь}  6/6 600 м 
[Sc]
+5.8 +1.7 75 +7  1022.6  0.1  763  301           
21 21.09.17 360 (С) 10 км    8/8 600 м 
[Sc]
+3.9 +1.1 82 +3  1023.8  1.1  764  303           
00 22.09.17 330 (СЗ) 10 км    ясно 
+0.4 -2.1 83 1025.3  1.1  765  308           
03 22.09.17 350 (С) 10 км    6/6 300 м 
[Cu Sc]
+1.4 -1.3 82 1026.8  1.5  766  307  -0.4        сухая 
06 22.09.17 360 (С) 3{11}  10 км    6/6 300 м 
[Sc]
+3.6 -3.3 61 +2  1028  1.2  767  305           
09 22.09.17 350 (С) 2{10}  10 км    10/10 600 м 
[Sc]
+3.5 -4.1 57 +3  1028.8  0.8  767  306           
12 22.09.17 360 (С) 10 км    10/10 600 м 
[Sc]
+2.4 -3.5 65 +2  1029.9  1.1  768  307           
15 22.09.17 360 (С) 10 км    10/10 600 м 
[Sc]
+1.6 -4.2 65 +1  1030.8  0.8  769  308    +4.3       
18 22.09.17 360 (С) 10 км    10/10 600 м 
[Sc]
+1.6 -3.7 68 +1  1030.7  0.1  769  308           
21 22.09.17 350 (С) 10 км    10/10 600 м 
[Sc]
+0.9 -4.5 67 1031.2  0.5  769  309           
00 23.09.17 320 (СЗ) 10 км    10/10 600 м 
[Sc]
+0.5 -3.4 75 +1  1031.6  0.4  769  310           
03 23.09.17 340 (С) 10 км    10/10 600 м 
[Sc]
+1.1 -2.9 75 +2  1031.9  0.3  770  309  +0.4         
06 23.09.17 050 (СВ) 10 км    9/9 600 м кучево-дожд. 
[Cb cap]
+3.7 -3.8 58 +3  1031.9  0.1  770  306           
09 23.09.17 010 (С) 10 км    10/10 600 м 
[Sc]
+4.5 -5.9 47 +4  1032  0.1  770  306           
12 23.09.17 010 (С) 10 км    9/9 600 м 
[Sc]
+4.2 -5.6 49 +5  1032.3  0.3  770  306           
15 23.09.17 тихо ()   10 км    9/9 600 м 
[Sc]
+0.9 -3.8 71 +1  1033.1  0.7  771  310    +4.7       
18 23.09.17 310 (СЗ) 10 км    ясно 
-1.9 -3 92 -1  1033.7  0.5  771  313           
21 23.09.17 тихо ()   10 км    9/9 600 м 
[Sc]
-2.8 -4.1 91 -3  1034.6  0.9  772  315           
00 24.09.17 тихо ()   10 км    10/10 600 м 
[Sc]
-1.2 -3.3 86 -1  1035.4  0.9  772  313           
03 24.09.17 310 (СЗ) 10 км    10/10 600 м 
[Sc]
+0.8 -2.6 78 +1  1036.2  0.8  773  311  -3.3        сухая 
Время (UTC), дата Ветер
(°,м/с) 
Видим.   Явления Облачность Т
(°С)
Тd
(°С)
f(%) Тe
(°С)
Pmin
(гПа)
dP
(гПа)
Po
(мм)
O2
(г/м3)
Тmin Tmax R s Состояние
почвы

Для получения пояснительной информации подведите курсор к названию столбца.

ПОГОДА Ханты-Мансийск - архив

Всё, что Вы хотите узнать о погоде Ханты-Мансийск - удобно и подробно!

Выберите нужную дату (начиная с 1 января 2015* года) и нажмите кнопку "Найти".
Будут отображены архивные сводки погоды по пункту Ханты-Мансийск, начиная с указанной даты.


Отображать данные в формате CSV (для использования в таблицах Excel)


Внимание! Наш архив погоды предназначен исключительно для личного некоммерческого использования в познавательных целях. Если Вам необходимы официальные справки о состоянии погоды (для производственных, юридических, коммерческих и т.п. целей), обращайтесь в органы Росгидромета.

*Примечание: данная дата относится к архиву по метеостанциям СССР (Россия, СНГ, Балтия).
Архив по метеостанциям Зарубежной Европы и Азии (кроме Китая) хранится 10 дней, по другим регионам земного шара (Китай, Африка, Америка, Австралия, Океания) - 1 день.

Ханты-Мансийск - район местоположения метеостанции


Название, широта, долгота, высота метеостанции:
Ханты-Мансийск 61°ш. 69°д. 46 м над ур. моря [Российская Федерация]

Дополнительная информация

В oтличие oт бoльшинства пoгoдных сайтoв мы публикуем пoдрoбную метеoинфoрмацию в детальнoм прoфессиoнальнoм фoрмате.

Характеристики температуры и влажнoсти вoздуха измеряются на высoте 2 м в тени вдали oт зданий и деревьев.
Скoрoсть ветра измеряется на высoте 10 м (на урoвне рoста челoвека скoрoсть ветра ниже в 1.5-2 раза). Если метеoстанция нахoдится в гoрoде или в лесу, тo скoрoсть ветра занижена на 2-4 м/с пo сравнению с oткрытым местoм. Скoрoсть ветра над акватoриями крупных рек и oзёр, а также на вершинах хoлмoв на 2-5 м/с выше, чем в oбычных услoвиях.
Атмoсфернoе давление в разных тoчках местнoсти мoжет значительнo oтличаться oт давления на метеoстанции, в зависимoсти oт услoвий рельефа (при пoдъёме на 10 м давление пoнижается примернo на 1 мм рт.ст.).